Home > Weather > Zwickau > Past weeks

Flag for Germany Past Weather in Zwickau, Saxony, Germany — Yesterday and Last 2 Weeks

Now
70 °F

Broken clouds.


Feels Like: 70 °F
Forecast: 62 / 76 °F
Wind: 9 mph from West

Location: Hof Airport

Current Time: Jul 29, 2016 at 2:14:16 PM

Latest Report: Jul 29, 2016 at 1:50 PM


Visibility: N/A

Pressure: 29.98 "Hg

Humidity: 60%

Dew Point: 55 °F

Location of ZwickauLocation

Past Weather in Zwickau — Graph

°F

Zwickau Temperature Yesterday

Maximum temperature yesterday: 73 °F (at 2:50 PM)
Minimum temperature yesterday: 57 °F (at 6:50 AM)
Average temperature yesterday: 69 °F

High & Low Weather Summary for the Past Weeks

 TemperatureHumidityPressure
High84 °F (Jul 20, 3:20 PM)94% (Jul 14, 1:20 PM)30.30 "Hg (Jul 14, 1:20 PM)
Low48 °F (Jul 16, 6:50 AM)31% (Jul 20, 3:20 PM)29.98 "Hg (Jul 29, 6:50 AM)
Average68 °F64%30.11 "Hg
* Reported Jul 14 12:20 PM — Jul 29 12:50 PM, Zwickau, Weather by CustomWeather, © 2016

Note: Actual official high and low records may vary slightly from our data, if they occured in-between our weather recording intervals... More about our weather records

Advertising

Zwickau Weather History for the Previous 24 Hours

Scroll right to see more
 ConditionsComfort  
Time TempWeatherWind HumidityBarometerVisibility
12:50 PM
Fri, Jul 29
70 °FBroken clouds.9 mph53%30.01 "HgN/A
12:20 PM70 °FPartly sunny.14 mph60%30.01 "HgN/A
11:50 AM66 °FScattered clouds.10 mph60%30.01 "HgN/A
11:20 AM66 °FBroken clouds.12 mph68%30.01 "HgN/A
10:50 AM64 °FBroken clouds.13 mph78%30.01 "HgN/A
10:20 AM64 °FBroken clouds.12 mph88%30.01 "HgN/A
9:50 AM61 °FLight rain. Broken clouds.9 mph88%30.01 "HgN/A
9:20 AM63 °FMostly cloudy.8 mph88%30.01 "HgN/A
8:50 AM63 °FMostly cloudy.7 mph88%30.01 "HgN/A
8:20 AM61 °FCloudy.6 mph94%30.01 "HgN/A
7:50 AM61 °FMostly cloudy.7 mph88%30.01 "HgN/A
7:20 AM61 °FMostly cloudy.8 mph88%29.98 "HgN/A
6:50 AM61 °FBroken clouds.6 mph88%29.98 "HgN/A
7:20 PM
Thu, Jul 28
68 °FSunny.2 mph60%30.01 "Hg10 mi
6:50 PM72 °FPassing clouds.7 mph53%30.01 "HgN/A
6:20 PM73 °FPassing clouds.7 mph47%30.01 "HgN/A
5:50 PM73 °FScattered clouds.7 mph50%30.01 "HgN/A
5:20 PM72 °FScattered clouds.8 mph50%30.04 "HgN/A
4:50 PM73 °FBroken clouds.6 mph50%30.04 "HgN/A
4:20 PM73 °FPartly sunny.8 mph50%30.04 "HgN/A
3:50 PM73 °FScattered clouds.9 mph47%30.04 "HgN/A
3:20 PM72 °FBroken clouds.8 mph50%30.07 "HgN/A
2:50 PM73 °FPartly sunny.9 mph47%30.07 "HgN/A
2:20 PM72 °FPartly sunny.9 mph50%30.07 "HgN/A
Weather by CustomWeather, © 2016

See weather overviewHow to use our weather pages